This is the latest recevied weather packets stored in our database for station/object W0AKO. If no packets are shown the sender has not sent any weather packets the latest 10 day(s).
| Time | Temp. | Humidity | Pressure | Rain* | Wind** | Luminosity | Snow |
|---|---|---|---|---|---|---|---|
| 1777703530 | 20° C | 10% | 1018.9 hPa | 0 mm | - | 0 W/m² | - |
| 1777703226 | 20.56° C | 10% | 1018.7 hPa | 0 mm | - | 0 W/m² | - |
| 1777702924 | 21.11° C | 10% | 1018.9 hPa | 0 mm | - | 0 W/m² | - |
| 1777702623 | 21.11° C | 10% | 1018.7 hPa | 0 mm | - | 0 W/m² | - |
| 1777702319 | 21.11° C | 10% | 1018.7 hPa | 0 mm | - | 0 W/m² | - |
| 1777702015 | 21.67° C | 10% | 1018.9 hPa | 0 mm | - | 0 W/m² | - |
| 1777701711 | 21.67° C | 10% | 1018.4 hPa | 0 mm | - | 0 W/m² | - |
| 1777701409 | 21.67° C | 10% | 1018.7 hPa | 0 mm | - | 0 W/m² | - |
| 1777701107 | 21.67° C | 10% | 1018.2 hPa | 0 mm | - | 0 W/m² | - |
| 1777700806 | 21.67° C | 10% | 1018.2 hPa | 0 mm | - | 0 W/m² | - |
| 1777700503 | 21.67° C | 10% | 1018.3 hPa | 0 mm | - | 0 W/m² | - |
| 1777700200 | 21.67° C | 10% | 1018.3 hPa | 0 mm | - | 0 W/m² | - |
| 1777699897 | 21.67° C | 10% | 1018.3 hPa | 0 mm | - | 0 W/m² | - |
| 1777699595 | 21.67° C | 10% | 1018 hPa | 0 mm | - | 0 W/m² | - |
| 1777699293 | 21.67° C | 10% | 1018.3 hPa | 0 mm | - | 0 W/m² | - |
| 1777698991 | 21.67° C | 10% | 1018.2 hPa | 0 mm | - | 0 W/m² | - |
| 1777698689 | 22.22° C | 10% | 1018.1 hPa | 0 mm | - | 0 W/m² | - |
| 1777698385 | 22.22° C | 10% | 1017.9 hPa | 0 mm | - | 0 W/m² | - |
| 1777698082 | 22.22° C | 10% | 1018.1 hPa | 0 mm | - | 0 W/m² | - |
| 1777697778 | 22.22° C | 10% | 1018 hPa | 0 mm | - | 0 W/m² | - |
| 1777697476 | 22.22° C | 10% | 1017.8 hPa | 0 mm | - | 0 W/m² | - |
| 1777697172 | 21.67° C | 10% | 1017.9 hPa | 0 mm | - | 0 W/m² | - |
| 1777696869 | 21.67° C | 10% | 1017.9 hPa | 0 mm | - | 0 W/m² | - |
| 1777696567 | 22.22° C | 10% | 1017.9 hPa | 0 mm | - | 0 W/m² | - |
| 1777696262 | 22.22° C | 10% | 1017.8 hPa | 0 mm | - | 0 W/m² | - |
* Rain latest hour (hover to see other rain measurements)
** Current wind speed in m/s (hover to see current wind gust speed)